Regional Weather Roundup
Issued by NWS

Home | Current Version | Previous Version | Text Only | Print | Product List | Glossary On
Versions: 1 2 3 4 5 6 7 8 9 10 11 12 13 14 15 16 17 18 19 20 21 22 23 24 25 26 27 28 29 30 31 32 33 34 35 36 37 38 39 40 41 42 43 44 45 46 47 48 49 50
000
ASUS45 KBOU 050607
RWRCO

WEATHER ROUNDUP FOR COLORADO
NATIONAL WEATHER SERVICE DENVER/BOULDER CO
1200 AM MDT TUE MAY 05 2015

NOTE: "FAIR" INDICATES FEW OR NO CLOUDS BELOW 12000 FEET WITH NO
SIGNIFICANT WEATHER AND/OR OBSTRUCTIONS TO VISIBILITY.

COZ001>005-013-030-031-050700-
...NORTHWEST COLORADO...

CITY           SKY/WX    TMP DP  RH WIND       PRES   REMARKS
CRAIG          PTCLDY    48  38  68 E12       29.99F
HAYDEN         NOT AVBL
MEEKER         PTCLDY    45  38  76 SE6       29.99F
MOUNT WERNER   NOT AVBL
STEAMBOAT SPGS PTCLDY    42  37  83 NW5       30.03F
WALDEN         MOCLDY    36  32  87 SE6       30.09S
$$

COZ006>008-011-050700-
...WEST CENTRAL VALLEYS...

CITY           SKY/WX    TMP DP  RH WIND       PRES   REMARKS
GRAND JUNCTION CLOUDY    56  45  66 E12       29.91F
MONTROSE       MOCLDY    50  44  80 SE7       29.99S
EAGLE          PTCLDY    45  41  87 CALM      30.06S
RIFLE          MOCLDY    49  42  77 E3        29.96S
DELTA          MOCLDY    55  44  65 E3        29.96S
NUCLA          MOCLDY    50  43  76 E7        30.02S
$$

COZ017>023-064>068-050700-
...SOUTHWEST COLORADO...

CITY           SKY/WX    TMP DP  RH WIND       PRES   REMARKS
DURANGO        CLOUDY    47  43  86 SE5       30.03S
CORTEZ         CLOUDY    50  46  86 SW3       29.99S
PAGOSA SPRINGS CLOUDY    43  42  97 CALM      30.07S
TELLURIDE      LGT RAIN  42  38  86 CALM      30.12S
WOLF CREEK PAS NOT AVBL
$$

COZ009-010-012-014-032>034-037-058>063-050700-
...CENTRAL COLORADO...

CITY           SKY/WX    TMP DP  RH WIND       PRES   REMARKS
ASPEN          MOCLDY    39  35  86 CALM      30.05F
BUENA VISTA    NOT AVBL
COPPER MTN     CLOUDY    36  32  87 E10G17    30.24F
BERTHOUD PASS  HAZE      28  19  69 E16G24    30.28F VSB<1/4 WCI  17
COTTONWOOD PAS RAIN      41  36  81 CALM      30.18F
GUNNISON       CLOUDY    45  36  70 N8        30.10S
KREMMLING      MOCLDY    41  36  81 CALM      30.09F
LEADVILLE      CLOUDY    35  35 100 SW3       30.17S
MONARCH PASS   SNOW      32  30  93 MISG      30.32F VSB<1/4
SALIDA         CLOUDY    46  44  93 CALM      30.19S
SUNLIGHT       MOCLDY    36  34  93 NE6       30.20F
WILKERSON PASS FOG       32  32 100 NE6       30.26F VSB 1/4 WCI  26
$$

COZ069>075-050700-
...SAN LUIS VALLEY/SANGRE DE CRISTO MOUNTAINS...

CITY           SKY/WX    TMP DP  RH WIND       PRES   REMARKS
ALAMOSA        CLOUDY    49  38  65 W5        30.05S
LA VETA PASS   FOG       36  36 100 MISG      30.18S VSB 1/4
SAGUACHE       CLOUDY    45  41  87 NW9       30.08F
$$

COZ035-036-038>040-050700-
...NORTHERN COLORADO FRONT RANGE...

CITY           SKY/WX    TMP DP  RH WIND       PRES   REMARKS
DENVER INTL AP CLOUDY    49  47  93 E8        30.08S FOG
DMNS CITY PARK   N/A     51  50  98 NW1G7     30.06F
AURORA         NOT AVBL
FRONT RANGE AP NOT AVBL
ERIE MUNI ARPT LGT RAIN  51  49  96 CALM      30.07F
BOULDER MUN AP CLOUDY    50  50 100 NE7       30.07F
CENTENNIAL     CLOUDY    50  46  86 S6        30.08F
BROOMFIELD     CLOUDY    50  50 100 SE6       30.08F FOG
FORT COLLINS   MOCLDY    48  45  87 E10       30.10S
LONGMONT       CLOUDY    52  50  92 E5        30.10S
$$

COZ041-046-047-076>085-087-088-050700-
...PIKES PEAK/PALMER DIVIDE AND SOUTHERN FOOTHILLS...

CITY           SKY/WX    TMP DP  RH WIND       PRES   REMARKS
COLO. SPRINGS  LGT RAIN  48  45  89 NE9       30.10F
A. F. ACADEMY  LGT RAIN  46  46 100 N5        30.10F
ELLICOTT       CLOUDY   N/A N/A N/A E14       30.09F
FALCON         RAIN      46  45  97 NE8       30.13S
FORT CARSON    NOT AVBL
LIMON          CLOUDY    48  47  96 SE6       30.08F
MONUMENT HILL  HVY RAIN  43  43 100 S7        30.11F
TRINIDAD       CLOUDY    50  48  93 CALM      30.05F
$$

COZ042>045-048>051-090-091-050700-
...NORTHEAST COLORADO...

CITY           SKY/WX    TMP DP  RH WIND       PRES   REMARKS
GREELEY ARPT   CLOUDY    48  43  81 E9        30.10F
AKRON          FOG       45  45 100 E7        30.08F VSB 1/4
BURLINGTON     CLOUDY    49  46  90 NE13      30.06F
WRAY           CLOUDY    49  49 100 NE6       30.09F
STERLING       CLOUDY    46  45  93 E6        30.08F
HOLYOKE        NOT AVBL
FORT MORGAN    CLOUDY    47  44  92 E9        30.09F
$$

COZ086-089-092>099-050700-
...SOUTHEAST COLORADO...

CITY           SKY/WX    TMP DP  RH WIND       PRES   REMARKS
PUEBLO         CLOUDY    54  49  83 E12       30.05R
LA JUNTA       CLOUDY    55  53  93 E9        30.04F
LAMAR          CLOUDY    55  54  96 E10       30.02R
SPRINGFIELD      N/A     53  52  96 NE9       30.04S
$$


USA.gov is the U.S. government's official web portal to all federal, state and local government web resources and services.